Time,TemperatureF,DewpointF,PressureIn,WindDirection,WindDirectionDegrees,WindSpeedMPH,WindSpeedGustMPH,Humidity,HourlyPrecipIn,Conditions,Clouds,dailyrainin,SoftwareType,DateUTC
2013-04-24 00:01:00,70.7,61.7,30.06,East,86,3.0,8.0,73,0.00,,,0.00,meteohub,2013-04-24 04:01:00,
2013-04-24 00:02:00,70.5,61.5,30.06,East,86,2.0,8.0,73,0.00,,,0.00,meteohub,2013-04-24 04:02:00,
2013-04-24 00:03:00,70.5,61.5,30.07,East,86,6.0,8.0,73,0.00,,,0.00,meteohub,2013-04-24 04:03:00,
2013-04-24 00:05:00,70.5,61.5,30.07,East,86,3.0,8.0,73,0.00,,,0.00,meteohub,2013-04-24 04:05:00,
2013-04-24 00:10:00,70.5,61.5,30.07,East,86,3.0,8.0,73,0.00,,,0.00,meteohub,2013-04-24 04:10:00,
2013-04-24 00:15:00,70.3,61.7,30.07,East,86,3.0,8.0,74,0.00,,,0.00,meteohub,2013-04-24 04:15:00,
2013-04-24 00:20:00,70.2,61.5,30.07,East,86,5.0,6.0,74,0.00,,,0.00,meteohub,2013-04-24 04:20:00,
2013-04-24 00:25:00,70.2,61.9,30.07,East,86,3.0,6.0,75,0.00,,,0.00,meteohub,2013-04-24 04:25:00,
2013-04-24 00:30:00,70.0,61.7,30.07,East,86,6.0,6.0,75,0.00,,,0.00,meteohub,2013-04-24 04:30:00,
2013-04-24 00:35:00,70.0,62.1,30.07,East,86,3.0,6.0,76,0.00,,,0.00,meteohub,2013-04-24 04:35:00,
2013-04-24 00:40:00,69.8,61.9,30.07,East,87,3.0,6.0,76,0.00,,,0.00,meteohub,2013-04-24 04:40:00,
2013-04-24 00:45:00,69.6,61.7,30.07,East,86,2.0,6.0,76,0.00,,,0.00,meteohub,2013-04-24 04:45:00,
2013-04-24 00:50:00,69.4,61.9,30.07,East,86,2.0,6.0,77,0.00,,,0.00,meteohub,2013-04-24 04:50:00,
2013-04-24 00:55:00,69.4,61.9,30.07,East,86,2.0,5.0,77,0.00,,,0.00,meteohub,2013-04-24 04:55:00,
2013-04-24 01:00:00,69.3,62.1,30.06,East,86,2.0,6.0,78,0.00,,,0.00,meteohub,2013-04-24 05:00:00,
2013-04-24 01:05:00,69.3,62.1,30.06,East,86,2.0,6.0,78,0.00,,,0.00,meteohub,2013-04-24 05:05:00,
2013-04-24 01:10:00,69.1,61.9,30.06,East,86,2.0,6.0,78,0.00,,,0.00,meteohub,2013-04-24 05:10:00,
2013-04-24 01:15:00,68.9,62.1,30.06,East,86,3.0,5.0,79,0.00,,,0.00,meteohub,2013-04-24 05:15:00,
2013-04-24 01:20:00,68.7,61.9,30.06,East,87,2.0,6.0,79,0.00,,,0.00,meteohub,2013-04-24 05:20:00,
2013-04-24 01:25:00,68.7,61.9,30.06,East,86,2.0,6.0,79,0.00,,,0.00,meteohub,2013-04-24 05:25:00,
2013-04-24 01:31:00,68.5,61.7,30.06,East,86,2.0,6.0,79,0.00,,,0.00,meteohub,2013-04-24 05:31:00,
2013-04-24 01:36:00,68.5,61.7,30.06,East,86,2.0,5.0,79,0.00,,,0.00,meteohub,2013-04-24 05:36:00,
2013-04-24 01:41:00,68.4,61.9,30.06,East,86,2.0,5.0,80,0.00,,,0.00,meteohub,2013-04-24 05:41:00,
2013-04-24 01:46:00,68.4,61.9,30.06,East,86,3.0,5.0,80,0.00,,,0.00,meteohub,2013-04-24 05:46:00,
2013-04-24 01:51:00,68.2,61.7,30.06,East,86,2.0,6.0,80,0.00,,,0.00,meteohub,2013-04-24 05:51:00,
2013-04-24 01:56:00,68.0,61.9,30.06,East,86,3.0,6.0,81,0.00,,,0.00,meteohub,2013-04-24 05:56:00,
2013-04-24 02:01:00,67.8,61.7,30.06,East,87,3.0,6.0,81,0.00,,,0.00,meteohub,2013-04-24 06:01:00,
2013-04-24 02:06:00,67.8,61.7,30.06,East,86,2.0,6.0,81,0.00,,,0.00,meteohub,2013-04-24 06:06:00,
2013-04-24 02:11:00,67.6,61.5,30.05,East,86,3.0,6.0,81,0.00,,,0.00,meteohub,2013-04-24 06:11:00,
2013-04-24 02:16:00,67.6,61.5,30.05,East,86,2.0,6.0,81,0.00,,,0.00,meteohub,2013-04-24 06:16:00,
2013-04-24 02:21:00,67.5,61.7,30.05,East,87,5.0,6.0,82,0.00,,,0.00,meteohub,2013-04-24 06:21:00,
2013-04-24 02:26:00,67.5,61.7,30.05,East,86,1.0,5.0,82,0.00,,,0.00,meteohub,2013-04-24 06:26:00,
2013-04-24 02:31:00,67.3,61.5,30.05,East,87,3.0,5.0,82,0.00,,,0.00,meteohub,2013-04-24 06:31:00,
2013-04-24 02:36:00,67.3,61.5,30.05,East,86,2.0,6.0,82,0.00,,,0.00,meteohub,2013-04-24 06:36:00,
2013-04-24 02:41:00,67.1,61.3,30.05,East,87,2.0,6.0,82,0.00,,,0.00,meteohub,2013-04-24 06:41:00,
2013-04-24 02:46:00,66.9,61.5,30.05,East,86,3.0,6.0,83,0.00,,,0.00,meteohub,2013-04-24 06:46:00,
2013-04-24 02:52:00,66.9,61.5,30.05,East,86,2.0,5.0,83,0.00,,,0.00,meteohub,2013-04-24 06:52:00,
2013-04-24 02:57:00,66.7,61.3,30.05,East,86,2.0,5.0,83,0.00,,,0.00,meteohub,2013-04-24 06:57:00,
2013-04-24 03:02:00,66.7,61.3,30.05,East,86,2.0,5.0,83,0.00,,,0.00,meteohub,2013-04-24 07:02:00,
2013-04-24 03:07:00,66.6,61.5,30.05,East,86,3.0,5.0,84,0.00,,,0.00,meteohub,2013-04-24 07:07:00,
2013-04-24 03:12:00,66.6,61.5,30.04,East,87,3.0,5.0,84,0.00,,,0.00,meteohub,2013-04-24 07:12:00,
2013-04-24 03:17:00,66.4,61.3,30.04,East,87,2.0,5.0,84,0.00,,,0.00,meteohub,2013-04-24 07:17:00,
2013-04-24 03:22:00,66.4,61.3,30.04,East,86,3.0,5.0,84,0.00,,,0.00,meteohub,2013-04-24 07:22:00,
2013-04-24 03:27:00,66.4,61.3,30.04,East,86,3.0,6.0,84,0.00,,,0.00,meteohub,2013-04-24 07:27:00,
2013-04-24 03:32:00,66.2,61.2,30.04,East,87,3.0,6.0,84,0.00,,,0.00,meteohub,2013-04-24 07:32:00,
2013-04-24 03:37:00,66.0,61.3,30.04,East,86,2.0,6.0,85,0.00,,,0.00,meteohub,2013-04-24 07:37:00,
2013-04-24 03:42:00,65.8,61.2,30.04,East,86,2.0,5.0,85,0.00,,,0.00,meteohub,2013-04-24 07:42:00,
2013-04-24 03:47:00,65.8,61.2,30.04,East,86,2.0,5.0,85,0.00,,,0.00,meteohub,2013-04-24 07:47:00,
2013-04-24 03:52:00,65.7,61.0,30.04,East,87,3.0,5.0,85,0.00,,,0.00,meteohub,2013-04-24 07:52:00,
2013-04-24 03:57:00,65.7,61.3,30.04,East,87,3.0,5.0,86,0.00,,,0.00,meteohub,2013-04-24 07:57:00,
2013-04-24 04:02:00,65.5,61.2,30.04,East,86,1.0,5.0,86,0.00,,,0.00,meteohub,2013-04-24 08:02:00,
2013-04-24 04:07:00,65.5,61.2,30.04,East,86,2.0,5.0,86,0.00,,,0.00,meteohub,2013-04-24 08:07:00,
2013-04-24 04:12:00,65.3,61.0,30.04,East,86,2.0,6.0,86,0.00,,,0.00,meteohub,2013-04-24 08:12:00,
2013-04-24 04:17:00,65.1,60.8,30.04,East,86,1.0,6.0,86,0.00,,,0.00,meteohub,2013-04-24 08:17:00,
2013-04-24 04:22:00,65.1,60.8,30.04,East,86,2.0,6.0,86,0.00,,,0.00,meteohub,2013-04-24 08:22:00,
2013-04-24 04:27:00,64.9,61.0,30.04,East,86,2.0,6.0,87,0.00,,,0.00,meteohub,2013-04-24 08:27:00,
2013-04-24 04:32:00,64.9,61.0,30.04,East,86,3.0,6.0,87,0.00,,,0.00,meteohub,2013-04-24 08:32:00,
2013-04-24 04:37:00,64.9,61.0,30.04,East,87,2.0,6.0,87,0.00,,,0.00,meteohub,2013-04-24 08:37:00,
2013-04-24 04:42:00,64.9,61.0,30.04,East,87,3.0,6.0,87,0.00,,,0.00,meteohub,2013-04-24 08:42:00,
2013-04-24 04:47:00,64.8,60.8,30.04,East,86,2.0,6.0,87,0.00,,,0.00,meteohub,2013-04-24 08:47:00,
2013-04-24 04:52:00,64.8,60.8,30.04,East,86,5.0,6.0,87,0.00,,,0.00,meteohub,2013-04-24 08:52:00,
2013-04-24 04:57:00,64.8,60.8,30.04,East,87,3.0,6.0,87,0.00,,,0.00,meteohub,2013-04-24 08:57:00,
2013-04-24 05:02:00,64.6,60.6,30.05,East,86,3.0,6.0,87,0.00,,,0.00,meteohub,2013-04-24 09:02:00,
2013-04-24 05:07:00,64.6,61.0,30.05,East,87,3.0,6.0,88,0.00,,,0.00,meteohub,2013-04-24 09:07:00,
2013-04-24 05:12:00,64.4,60.8,30.05,East,86,3.0,5.0,88,0.00,,,0.00,meteohub,2013-04-24 09:12:00,
2013-04-24 05:17:00,64.4,60.8,30.05,East,87,2.0,5.0,88,0.00,,,0.00,meteohub,2013-04-24 09:17:00,
2013-04-24 05:22:00,64.2,60.6,30.05,East,87,2.0,5.0,88,0.00,,,0.00,meteohub,2013-04-24 09:22:00,
2013-04-24 05:27:00,64.2,60.6,30.05,East,86,2.0,5.0,88,0.00,,,0.00,meteohub,2013-04-24 09:27:00,
2013-04-24 05:32:00,64.2,60.6,30.05,East,87,2.0,3.0,88,0.00,,,0.00,meteohub,2013-04-24 09:32:00,
2013-04-24 05:37:00,64.0,60.8,30.05,East,87,2.0,3.0,89,0.00,,,0.00,meteohub,2013-04-24 09:37:00,
2013-04-24 05:42:00,64.0,60.8,30.05,East,86,2.0,5.0,89,0.00,,,0.00,meteohub,2013-04-24 09:42:00,
2013-04-24 05:47:00,64.0,60.8,30.05,East,87,2.0,5.0,89,0.00,,,0.00,meteohub,2013-04-24 09:47:00,
2013-04-24 05:52:00,64.0,60.8,30.05,East,87,2.0,5.0,89,0.00,,,0.00,meteohub,2013-04-24 09:52:00,
2013-04-24 05:57:00,64.0,60.8,30.06,East,87,2.0,5.0,89,0.00,,,0.00,meteohub,2013-04-24 09:57:00,
2013-04-24 06:02:00,64.0,60.8,30.06,East,87,1.0,5.0,89,0.00,,,0.00,meteohub,2013-04-24 10:02:00,
2013-04-24 06:07:00,64.0,60.8,30.05,East,87,2.0,3.0,89,0.00,,,0.00,meteohub,2013-04-24 10:07:00,
2013-04-24 06:12:00,63.9,60.8,30.05,East,86,2.0,3.0,90,0.00,,,0.00,meteohub,2013-04-24 10:12:00,
2013-04-24 06:17:00,63.9,60.8,30.06,East,86,2.0,3.0,90,0.00,,,0.00,meteohub,2013-04-24 10:17:00,
2013-04-24 06:22:00,63.9,60.8,30.05,East,87,3.0,3.0,90,0.00,,,0.00,meteohub,2013-04-24 10:22:00,
2013-04-24 06:27:00,63.9,60.8,30.06,East,87,3.0,6.0,90,0.00,,,0.00,meteohub,2013-04-24 10:27:00,
2013-04-24 06:32:00,63.7,60.6,30.06,East,87,1.0,6.0,90,0.00,,,0.00,meteohub,2013-04-24 10:32:00,
2013-04-24 06:37:00,63.7,60.6,30.06,East,86,1.0,6.0,90,0.00,,,0.00,meteohub,2013-04-24 10:37:00,
2013-04-24 06:42:00,63.7,60.6,30.06,East,86,1.0,5.0,90,0.00,,,0.00,meteohub,2013-04-24 10:42:00,
2013-04-24 06:47:00,63.9,60.8,30.06,East,86,2.0,5.0,90,0.00,,,0.00,meteohub,2013-04-24 10:47:00,
2013-04-24 06:52:00,63.9,60.8,30.06,East,87,2.0,5.0,90,0.00,,,0.00,meteohub,2013-04-24 10:52:00,
2013-04-24 06:57:00,63.9,60.8,30.06,East,86,2.0,3.0,90,0.00,,,0.00,meteohub,2013-04-24 10:57:00,
2013-04-24 07:02:00,63.9,60.8,30.06,East,87,1.0,3.0,90,0.00,,,0.00,meteohub,2013-04-24 11:02:00,
2013-04-24 07:07:00,63.9,60.8,30.06,East,87,3.0,3.0,90,0.00,,,0.00,meteohub,2013-04-24 11:07:00,
2013-04-24 07:12:00,63.9,60.8,30.07,East,87,2.0,3.0,90,0.00,,,0.00,meteohub,2013-04-24 11:12:00,
2013-04-24 07:17:00,63.9,60.8,30.07,East,87,2.0,3.0,90,0.00,,,0.00,meteohub,2013-04-24 11:17:00,
2013-04-24 07:22:00,63.9,60.8,30.07,East,86,2.0,3.0,90,0.00,,,0.00,meteohub,2013-04-24 11:22:00,
2013-04-24 07:27:00,63.9,60.8,30.07,East,86,2.0,3.0,90,0.00,,,0.00,meteohub,2013-04-24 11:27:00,
2013-04-24 07:32:00,64.0,61.0,30.07,East,87,2.0,5.0,90,0.00,,,0.00,meteohub,2013-04-24 11:32:00,
2013-04-24 07:37:00,64.2,61.2,30.07,East,86,1.0,5.0,90,0.00,,,0.00,meteohub,2013-04-24 11:37:00,
2013-04-24 07:42:00,64.4,61.3,30.08,East,86,2.0,6.0,90,0.00,,,0.00,meteohub,2013-04-24 11:42:00,
2013-04-24 07:47:00,64.6,61.5,30.08,East,86,1.0,6.0,90,0.00,,,0.00,meteohub,2013-04-24 11:47:00,
2013-04-24 07:52:00,64.8,61.7,30.08,East,87,2.0,6.0,90,0.00,,,0.00,meteohub,2013-04-24 11:52:00,
2013-04-24 07:57:00,65.1,61.9,30.09,East,87,2.0,5.0,89,0.00,,,0.00,meteohub,2013-04-24 11:57:00,
2013-04-24 08:02:00,65.5,62.2,30.09,East,87,2.0,5.0,89,0.00,,,0.00,meteohub,2013-04-24 12:02:00,
2013-04-24 08:07:00,65.7,62.1,30.09,East,87,3.0,5.0,88,0.00,,,0.00,meteohub,2013-04-24 12:07:00,
2013-04-24 08:12:00,66.0,62.4,30.09,East,87,2.0,5.0,88,0.00,,,0.00,meteohub,2013-04-24 12:12:00,
2013-04-24 08:17:00,66.7,62.4,30.09,East,87,3.0,5.0,86,0.00,,,0.00,meteohub,2013-04-24 12:17:00,
2013-04-24 08:22:00,67.5,62.8,30.09,East,87,2.0,6.0,85,0.00,,,0.00,meteohub,2013-04-24 12:22:00,
2013-04-24 08:27:00,68.4,63.0,30.09,East,86,3.0,6.0,83,0.00,,,0.00,meteohub,2013-04-24 12:27:00,
2013-04-24 08:32:00,68.9,63.1,30.09,East,87,2.0,6.0,82,0.00,,,0.00,meteohub,2013-04-24 12:32:00,
2013-04-24 08:37:00,69.8,63.7,30.09,East,86,2.0,6.0,81,0.00,,,0.00,meteohub,2013-04-24 12:37:00,
2013-04-24 08:42:00,70.5,63.3,30.09,East,87,2.0,6.0,78,0.00,,,0.00,meteohub,2013-04-24 12:42:00,
2013-04-24 08:47:00,71.1,63.5,30.09,East,87,3.0,6.0,77,0.00,,,0.00,meteohub,2013-04-24 12:47:00,
2013-04-24 08:52:00,71.4,63.5,30.09,East,87,3.0,6.0,76,0.00,,,0.00,meteohub,2013-04-24 12:52:00,
2013-04-24 08:57:00,71.8,63.9,30.09,ESE,109,3.0,6.0,76,0.00,,,0.00,meteohub,2013-04-24 12:57:00,
2013-04-24 09:02:00,72.3,64.4,30.09,ESE,109,2.0,6.0,76,0.00,,,0.00,meteohub,2013-04-24 13:02:00,
2013-04-24 09:07:00,73.6,64.8,30.09,ESE,109,3.0,6.0,74,0.00,,,0.00,meteohub,2013-04-24 13:07:00,
2013-04-24 09:12:00,73.9,63.9,30.09,South,182,5.0,5.0,71,0.00,,,0.00,meteohub,2013-04-24 13:12:00,
2013-04-24 09:17:00,74.5,64.0,30.09,ESE,123,3.0,5.0,70,0.00,,,0.00,meteohub,2013-04-24 13:17:00,
2013-04-24 09:22:00,74.7,64.2,30.10,East,100,5.0,5.0,70,0.00,,,0.00,meteohub,2013-04-24 13:22:00,
2013-04-24 09:27:00,74.8,64.4,30.10,ESE,105,3.0,5.0,70,0.00,,,0.00,meteohub,2013-04-24 13:27:00,
2013-04-24 09:32:00,75.4,64.6,30.10,SE,134,4.0,5.0,69,0.00,,,0.00,meteohub,2013-04-24 13:32:00,
2013-04-24 09:37:00,75.7,64.0,30.10,ESE,109,4.0,7.0,67,0.00,,,0.00,meteohub,2013-04-24 13:37:00,
2013-04-24 09:42:00,76.3,64.0,30.10,SE,143,2.0,7.0,66,0.00,,,0.00,meteohub,2013-04-24 13:42:00,
2013-04-24 09:47:00,76.6,64.0,30.10,ESE,106,3.0,7.0,65,0.00,,,0.00,meteohub,2013-04-24 13:47:00,
2013-04-24 09:52:00,76.6,64.4,30.10,ESE,122,4.0,7.0,66,0.00,,,0.00,meteohub,2013-04-24 13:52:00,
2013-04-24 09:57:00,76.6,64.4,30.10,ESE,109,3.0,6.0,66,0.00,,,0.00,meteohub,2013-04-24 13:57:00,
2013-04-24 10:02:00,77.4,64.8,30.10,ESE,107,4.0,5.0,65,0.00,,,0.00,meteohub,2013-04-24 14:02:00,
2013-04-24 10:07:00,77.5,63.9,30.10,East,96,5.0,5.0,63,0.00,,,0.00,meteohub,2013-04-24 14:07:00,
2013-04-24 10:12:00,77.9,63.9,30.10,East,92,6.0,7.0,62,0.00,,,0.00,meteohub,2013-04-24 14:12:00,
2013-04-24 10:17:00,77.5,63.9,30.10,SE,138,2.0,8.0,63,0.00,,,0.00,meteohub,2013-04-24 14:17:00,
2013-04-24 10:22:00,77.7,63.1,30.10,SSE,150,4.0,8.0,61,0.00,,,0.00,meteohub,2013-04-24 14:22:00,
2013-04-24 10:27:00,77.9,63.9,30.10,ESE,123,4.0,9.0,62,0.00,,,0.00,meteohub,2013-04-24 14:27:00,
2013-04-24 10:32:00,77.9,63.9,30.10,SE,125,3.0,9.0,62,0.00,,,0.00,meteohub,2013-04-24 14:32:00,
2013-04-24 10:37:00,78.4,63.9,30.10,SE,135,4.0,9.0,61,0.00,,,0.00,meteohub,2013-04-24 14:37:00,
2013-04-24 10:42:00,78.8,63.7,30.10,ESE,119,2.0,7.0,60,0.00,,,0.00,meteohub,2013-04-24 14:42:00,
2013-04-24 10:47:00,79.0,63.9,30.10,ESE,118,4.0,7.0,60,0.00,,,0.00,meteohub,2013-04-24 14:47:00,
2013-04-24 10:52:00,78.4,63.9,30.10,SE,136,4.0,8.0,61,0.00,,,0.00,meteohub,2013-04-24 14:52:00,
2013-04-24 10:57:00,78.3,63.3,30.10,ESE,103,4.0,8.0,60,0.00,,,0.00,meteohub,2013-04-24 14:57:00,
2013-04-24 11:02:00,78.3,63.3,30.10,East,98,3.0,8.0,60,0.00,,,0.00,meteohub,2013-04-24 15:02:00,
2013-04-24 11:09:00,79.0,63.5,30.10,SE,126,5.0,8.0,59,0.00,,,0.00,meteohub,2013-04-24 15:09:00,
2013-04-24 11:14:00,78.4,63.3,30.10,ESE,113,5.0,8.0,60,0.00,,,0.00,meteohub,2013-04-24 15:14:00,
2013-04-24 11:19:00,78.6,63.5,30.10,SE,134,5.0,8.0,60,0.00,,,0.00,meteohub,2013-04-24 15:19:00,
2013-04-24 11:24:00,79.2,63.7,30.10,ESE,109,4.0,8.0,59,0.00,,,0.00,meteohub,2013-04-24 15:24:00,
2013-04-24 11:29:00,79.7,63.7,30.10,ESE,121,2.0,8.0,58,0.00,,,0.00,meteohub,2013-04-24 15:29:00,
2013-04-24 11:34:00,80.1,63.0,30.10,East,101,5.0,7.0,56,0.00,,,0.00,meteohub,2013-04-24 15:34:00,
2013-04-24 11:40:00,80.4,63.9,30.10,SSE,158,3.0,7.0,57,0.00,,,0.00,meteohub,2013-04-24 15:40:00,
2013-04-24 11:45:00,80.1,63.9,30.10,ESE,113,3.0,7.0,58,0.00,,,0.00,meteohub,2013-04-24 15:45:00,
2013-04-24 11:50:00,80.8,64.6,30.09,SSE,165,4.0,7.0,58,0.00,,,0.00,meteohub,2013-04-24 15:50:00,
2013-04-24 11:55:00,81.3,62.6,30.09,ESE,120,3.0,7.0,53,0.00,,,0.00,meteohub,2013-04-24 15:55:00,
2013-04-24 12:00:00,82.0,64.2,30.09,SE,144,3.0,7.0,55,0.00,,,0.00,meteohub,2013-04-24 16:00:00,
2013-04-24 12:05:00,82.2,64.9,30.09,ESE,111,3.0,7.0,56,0.00,,,0.00,meteohub,2013-04-24 16:05:00,
2013-04-24 12:10:00,82.6,64.2,30.09,East,98,5.0,7.0,54,0.00,,,0.00,meteohub,2013-04-24 16:10:00,
2013-04-24 12:15:00,82.2,63.3,30.09,ESE,105,5.0,7.0,53,0.00,,,0.00,meteohub,2013-04-24 16:15:00,
2013-04-24 12:20:00,81.9,62.4,30.09,East,98,3.0,8.0,52,0.00,,,0.00,meteohub,2013-04-24 16:20:00,
2013-04-24 12:25:00,82.0,62.1,30.09,East,98,3.0,7.0,51,0.00,,,0.00,meteohub,2013-04-24 16:25:00,
2013-04-24 12:30:00,82.2,61.2,30.09,ENE,78,2.0,7.0,49,0.00,,,0.00,meteohub,2013-04-24 16:30:00,
2013-04-24 12:35:00,82.8,60.4,30.09,East,90,6.0,6.0,47,0.00,,,0.00,meteohub,2013-04-24 16:35:00,
2013-04-24 12:40:00,83.1,60.3,30.09,East,90,2.0,7.0,46,0.00,,,0.00,meteohub,2013-04-24 16:40:00,
2013-04-24 12:45:00,83.8,59.5,30.09,East,98,2.0,7.0,44,0.00,,,0.00,meteohub,2013-04-24 16:45:00,
2013-04-24 12:50:00,83.8,60.3,30.09,East,98,2.0,7.0,45,0.00,,,0.00,meteohub,2013-04-24 16:50:00,
2013-04-24 12:55:00,83.5,61.2,30.09,East,98,3.0,6.0,47,0.00,,,0.00,meteohub,2013-04-24 16:55:00,
2013-04-24 13:00:00,83.7,60.6,30.09,ESE,107,3.0,6.0,46,0.00,,,0.00,meteohub,2013-04-24 17:00:00,
2013-04-24 13:06:00,83.7,60.6,30.09,ESE,104,4.0,5.0,46,0.00,,,0.00,meteohub,2013-04-24 17:06:00,
2013-04-24 13:11:00,83.5,60.4,30.09,ESE,104,2.0,5.0,46,0.00,,,0.00,meteohub,2013-04-24 17:11:00,
2013-04-24 13:16:00,82.9,60.1,30.09,ESE,104,2.0,7.0,46,0.00,,,0.00,meteohub,2013-04-24 17:16:00,
2013-04-24 13:21:00,83.3,61.0,30.09,ESE,104,2.0,7.0,47,0.00,,,0.00,meteohub,2013-04-24 17:21:00,
2013-04-24 13:26:00,84.2,60.6,30.08,ENE,67,1.0,5.0,45,0.00,,,0.00,meteohub,2013-04-24 17:26:00,
2013-04-24 13:31:00,84.2,59.9,30.08,East,82,3.0,5.0,44,0.00,,,0.00,meteohub,2013-04-24 17:31:00,
2013-04-24 13:36:00,84.0,59.2,30.08,SE,144,1.0,5.0,43,0.00,,,0.00,meteohub,2013-04-24 17:36:00,
2013-04-24 13:41:00,84.6,60.3,30.08,SE,126,2.0,5.0,44,0.00,,,0.00,meteohub,2013-04-24 17:41:00,
2013-04-24 13:46:00,84.6,58.3,30.08,ENE,78,1.0,6.0,41,0.00,,,0.00,meteohub,2013-04-24 17:46:00,
2013-04-24 13:51:00,84.4,58.8,30.08,NE,51,4.0,6.0,42,0.00,,,0.00,meteohub,2013-04-24 17:51:00,
2013-04-24 13:56:00,85.5,58.5,30.07,ESE,115,1.0,6.0,40,0.00,,,0.00,meteohub,2013-04-24 17:56:00,
2013-04-24 14:01:00,86.0,58.8,30.07,ESE,115,1.0,5.0,40,0.00,,,0.00,meteohub,2013-04-24 18:01:00,
2013-04-24 14:06:00,85.8,58.6,30.07,ESE,118,1.0,5.0,40,0.00,,,0.00,meteohub,2013-04-24 18:06:00,
2013-04-24 14:11:00,86.5,58.6,30.07,SE,129,2.0,4.0,39,0.00,,,0.00,meteohub,2013-04-24 18:11:00,
2013-04-24 14:16:00,86.7,58.1,30.07,East,96,1.0,4.0,38,0.00,,,0.00,meteohub,2013-04-24 18:16:00,
2013-04-24 14:21:00,86.9,58.3,30.07,East,96,1.0,4.0,38,0.00,,,0.00,meteohub,2013-04-24 18:21:00,
2013-04-24 14:26:00,87.1,57.6,30.07,East,96,3.0,5.0,37,0.00,,,0.00,meteohub,2013-04-24 18:26:00,
2013-04-24 14:31:00,86.5,56.5,30.07,East,95,0.0,6.0,36,0.00,,,0.00,meteohub,2013-04-24 18:31:00,
2013-04-24 14:37:00,87.1,56.1,30.07,East,95,1.0,6.0,35,0.00,,,0.00,meteohub,2013-04-24 18:37:00,
2013-04-24 14:42:00,87.4,56.5,30.07,East,95,1.0,6.0,35,0.00,,,0.00,meteohub,2013-04-24 18:42:00,
2013-04-24 14:47:00,88.0,56.8,30.07,East,84,2.0,3.0,35,0.00,,,0.00,meteohub,2013-04-24 18:47:00,
2013-04-24 14:52:00,88.0,64.0,30.07,West,261,5.0,6.0,45,0.00,,,0.00,meteohub,2013-04-24 18:52:00,
2013-04-24 14:57:00,87.4,64.0,30.06,West,262,2.0,7.0,46,0.00,,,0.00,meteohub,2013-04-24 18:57:00,
2013-04-24 15:02:00,87.1,63.9,30.06,WNW,285,3.0,8.0,46,0.00,,,0.00,meteohub,2013-04-24 19:02:00,
2013-04-24 15:07:00,86.4,64.9,30.06,WSW,246,6.0,9.0,49,0.00,,,0.00,meteohub,2013-04-24 19:07:00,
2013-04-24 15:12:00,85.8,64.9,30.06,WNW,285,5.0,9.0,50,0.00,,,0.00,meteohub,2013-04-24 19:12:00,
2013-04-24 15:17:00,85.6,64.9,30.06,WNW,302,8.0,9.0,50,0.00,,,0.00,meteohub,2013-04-24 19:17:00,
2013-04-24 15:22:00,84.9,64.8,30.06,WNW,284,6.0,9.0,51,0.00,,,0.00,meteohub,2013-04-24 19:22:00,
2013-04-24 15:27:00,84.7,66.2,30.06,NW,326,4.0,9.0,54,0.00,,,0.00,meteohub,2013-04-24 19:27:00,
2013-04-24 15:32:00,84.7,65.7,30.06,NW,306,5.0,9.0,53,0.00,,,0.00,meteohub,2013-04-24 19:32:00,
2013-04-24 15:37:00,84.9,65.3,30.06,West,268,3.0,9.0,52,0.00,,,0.00,meteohub,2013-04-24 19:37:00,
2013-04-24 15:42:00,84.9,64.8,30.05,WSW,254,3.0,9.0,51,0.00,,,0.00,meteohub,2013-04-24 19:42:00,
2013-04-24 15:47:00,84.7,64.6,30.06,West,269,4.0,9.0,51,0.00,,,0.00,meteohub,2013-04-24 19:47:00,
2013-04-24 15:52:00,84.6,64.4,30.05,West,279,8.0,10.0,51,0.00,,,0.00,meteohub,2013-04-24 19:52:00,
2013-04-24 15:57:00,84.4,64.8,30.05,West,273,3.0,10.0,52,0.00,,,0.00,meteohub,2013-04-24 19:57:00,
2013-04-24 16:02:00,84.6,63.9,30.05,West,279,4.0,9.0,50,0.00,,,0.00,meteohub,2013-04-24 20:02:00,
2013-04-24 16:07:00,84.7,65.1,30.05,West,277,5.0,9.0,52,0.00,,,0.00,meteohub,2013-04-24 20:07:00,
2013-04-24 16:12:00,84.7,65.7,30.05,WSW,242,4.0,9.0,53,0.00,,,0.00,meteohub,2013-04-24 20:12:00,
2013-04-24 16:17:00,84.4,65.3,30.05,WNW,291,7.0,8.0,53,0.00,,,0.00,meteohub,2013-04-24 20:17:00,
2013-04-24 16:22:00,83.8,64.9,30.05,West,259,6.0,10.0,53,0.00,,,0.00,meteohub,2013-04-24 20:22:00,
2013-04-24 16:27:00,84.4,65.3,30.05,NW,305,5.0,10.0,53,0.00,,,0.00,meteohub,2013-04-24 20:27:00,
2013-04-24 16:32:00,84.4,64.8,30.05,West,277,5.0,10.0,52,0.00,,,0.00,meteohub,2013-04-24 20:32:00,
2013-04-24 16:37:00,83.1,65.8,30.05,NW,324,3.0,10.0,56,0.00,,,0.00,meteohub,2013-04-24 20:37:00,
2013-04-24 16:42:00,82.8,66.0,30.05,WNW,286,4.0,10.0,57,0.00,,,0.00,meteohub,2013-04-24 20:42:00,
2013-04-24 16:47:00,82.0,65.8,30.05,West,280,5.0,9.0,58,0.00,,,0.00,meteohub,2013-04-24 20:47:00,
2013-04-24 16:52:00,81.3,65.7,30.05,NW,307,2.0,8.0,59,0.00,,,0.00,meteohub,2013-04-24 20:52:00,
2013-04-24 16:57:00,80.1,66.4,30.05,West,279,3.0,9.0,63,0.00,,,0.00,meteohub,2013-04-24 20:57:00,
2013-04-24 17:02:00,79.2,65.8,30.05,WNW,285,3.0,10.0,64,0.00,,,0.00,meteohub,2013-04-24 21:02:00,
2013-04-24 17:07:00,79.5,66.2,30.05,WNW,297,5.0,10.0,64,0.00,,,0.00,meteohub,2013-04-24 21:07:00,
2013-04-24 17:12:00,79.5,66.7,30.05,NW,310,4.0,9.0,65,0.00,,,0.00,meteohub,2013-04-24 21:12:00,
2013-04-24 17:17:00,79.2,66.4,30.05,West,279,6.0,9.0,65,0.00,,,0.00,meteohub,2013-04-24 21:17:00,
2013-04-24 17:22:00,79.3,66.6,30.05,West,281,9.0,11.0,65,0.00,,,0.00,meteohub,2013-04-24 21:22:00,
2013-04-24 17:27:00,79.2,66.4,30.05,West,276,6.0,11.0,65,0.00,,,0.00,meteohub,2013-04-24 21:27:00,
2013-04-24 17:32:00,79.3,66.9,30.05,WNW,302,6.0,11.0,66,0.00,,,0.00,meteohub,2013-04-24 21:32:00,
2013-04-24 17:37:00,79.3,67.5,30.05,WNW,295,5.0,10.0,67,0.00,,,0.00,meteohub,2013-04-24 21:37:00,
2013-04-24 17:42:00,79.3,66.9,30.05,NW,312,8.0,10.0,66,0.00,,,0.00,meteohub,2013-04-24 21:42:00,
2013-04-24 17:47:00,79.0,66.6,30.05,NW,309,3.0,10.0,66,0.00,,,0.00,meteohub,2013-04-24 21:47:00,
2013-04-24 17:52:00,78.6,67.1,30.06,WNW,286,3.0,10.0,68,0.00,,,0.00,meteohub,2013-04-24 21:52:00,
2013-04-24 17:57:00,77.9,66.9,30.05,NW,311,8.0,11.0,69,0.00,,,0.00,meteohub,2013-04-24 21:57:00,
2013-04-24 18:02:00,77.5,66.2,30.05,WNW,296,4.0,11.0,68,0.00,,,0.00,meteohub,2013-04-24 22:02:00,
2013-04-24 18:07:00,77.5,66.9,30.06,WNW,295,3.0,11.0,70,0.00,,,0.00,meteohub,2013-04-24 22:07:00,
2013-04-24 18:12:00,77.2,66.6,30.06,West,271,5.0,9.0,70,0.00,,,0.00,meteohub,2013-04-24 22:12:00,
2013-04-24 18:17:00,76.5,66.4,30.06,WNW,303,4.0,8.0,71,0.00,,,0.00,meteohub,2013-04-24 22:17:00,
2013-04-24 18:22:00,76.3,66.6,30.06,WNW,302,4.0,8.0,72,0.00,,,0.00,meteohub,2013-04-24 22:22:00,
2013-04-24 18:27:00,76.1,66.7,30.06,WNW,300,4.0,8.0,73,0.00,,,0.00,meteohub,2013-04-24 22:27:00,
2013-04-24 18:32:00,75.7,66.4,30.05,WNW,300,3.0,8.0,73,0.00,,,0.00,meteohub,2013-04-24 22:32:00,
2013-04-24 18:37:00,75.6,67.1,30.05,West,267,5.0,9.0,75,0.00,,,0.00,meteohub,2013-04-24 22:37:00,
2013-04-24 18:42:00,75.6,67.1,30.05,WNW,298,3.0,9.0,75,0.00,,,0.00,meteohub,2013-04-24 22:42:00,
2013-04-24 18:47:00,75.2,66.4,30.06,WNW,297,4.0,8.0,74,0.00,,,0.00,meteohub,2013-04-24 22:47:00,
2013-04-24 18:52:00,75.0,66.6,30.06,NW,307,7.0,9.0,75,0.00,,,0.00,meteohub,2013-04-24 22:52:00,
2013-04-24 18:57:00,74.8,66.7,30.06,WNW,294,3.0,9.0,76,0.00,,,0.00,meteohub,2013-04-24 22:57:00,
2013-04-24 19:02:00,74.8,66.7,30.06,NW,311,4.0,9.0,76,0.00,,,0.00,meteohub,2013-04-24 23:02:00,
2013-04-24 19:07:00,74.7,66.9,30.06,NW,313,1.0,9.0,77,0.00,,,0.00,meteohub,2013-04-24 23:07:00,
2013-04-24 19:12:00,74.7,66.9,30.06,NW,312,4.0,7.0,77,0.00,,,0.00,meteohub,2013-04-24 23:12:00,
2013-04-24 19:17:00,74.5,66.7,30.06,NW,313,5.0,6.0,77,0.00,,,0.00,meteohub,2013-04-24 23:17:00,
2013-04-24 19:22:00,74.5,66.7,30.06,NW,312,4.0,6.0,77,0.00,,,0.00,meteohub,2013-04-24 23:22:00,
2013-04-24 19:27:00,74.3,66.6,30.06,WNW,293,7.0,7.0,77,0.00,,,0.00,meteohub,2013-04-24 23:27:00,
2013-04-24 19:32:00,73.9,66.6,30.06,NW,322,3.0,8.0,78,0.00,,,0.00,meteohub,2013-04-24 23:32:00,
2013-04-24 19:37:00,73.9,66.6,30.06,NW,321,2.0,8.0,78,0.00,,,0.00,meteohub,2013-04-24 23:37:00,
2013-04-24 19:42:00,73.9,67.1,30.06,WNW,298,2.0,8.0,79,0.00,,,0.00,meteohub,2013-04-24 23:42:00,
2013-04-24 19:47:00,73.8,66.9,30.06,NW,317,5.0,6.0,79,0.00,,,0.00,meteohub,2013-04-24 23:47:00,
2013-04-24 19:52:00,73.6,67.1,30.06,WNW,300,3.0,8.0,80,0.00,,,0.00,meteohub,2013-04-24 23:52:00,
2013-04-24 19:57:00,73.4,66.9,30.06,NW,309,4.0,8.0,80,0.00,,,0.00,meteohub,2013-04-24 23:57:00,
2013-04-24 20:02:00,73.0,66.9,30.06,NW,310,5.0,8.0,81,0.00,,,0.00,meteohub,2013-04-25 00:02:00,
2013-04-24 20:07:00,73.0,67.3,30.07,NW,324,5.0,8.0,82,0.00,,,0.00,meteohub,2013-04-25 00:07:00,
2013-04-24 20:12:00,72.7,66.9,30.07,NW,311,3.0,9.0,82,0.00,,,0.00,meteohub,2013-04-25 00:12:00,
2013-04-24 20:17:00,72.5,67.1,30.07,WNW,294,3.0,9.0,83,0.00,,,0.00,meteohub,2013-04-25 00:17:00,
2013-04-24 20:22:00,72.3,66.9,30.06,WNW,301,3.0,9.0,83,0.00,,,0.00,meteohub,2013-04-25 00:22:00,
2013-04-24 20:27:00,72.3,67.3,30.07,WNW,295,4.0,8.0,84,0.00,,,0.00,meteohub,2013-04-25 00:27:00,
2013-04-24 20:32:00,72.1,67.1,30.07,NW,321,3.0,7.0,84,0.00,,,0.00,meteohub,2013-04-25 00:32:00,
2013-04-24 20:37:00,72.0,66.9,30.07,NW,321,2.0,7.0,84,0.00,,,0.00,meteohub,2013-04-25 00:37:00,
2013-04-24 20:42:00,72.0,66.9,30.08,NW,319,4.0,7.0,84,0.00,,,0.00,meteohub,2013-04-25 00:42:00,
2013-04-24 20:47:00,72.0,66.9,30.08,NW,315,2.0,7.0,84,0.00,,,0.00,meteohub,2013-04-25 00:47:00,
2013-04-24 20:52:00,71.8,67.1,30.08,NW,315,1.0,6.0,85,0.00,,,0.00,meteohub,2013-04-25 00:52:00,
2013-04-24 20:57:00,71.6,66.9,30.08,NW,315,1.0,6.0,85,0.00,,,0.00,meteohub,2013-04-25 00:57:00,
2013-04-24 21:02:00,71.6,66.9,30.08,NW,315,2.0,5.0,85,0.00,,,0.00,meteohub,2013-04-25 01:02:00,
2013-04-24 21:07:00,71.6,66.6,30.08,NW,315,1.0,5.0,84,0.00,,,0.00,meteohub,2013-04-25 01:07:00,
2013-04-24 21:12:00,71.4,66.4,30.08,NW,315,1.0,5.0,84,0.00,,,0.00,meteohub,2013-04-25 01:12:00,
2013-04-24 21:17:00,71.4,66.4,30.09,NW,315,3.0,5.0,84,0.00,,,0.00,meteohub,2013-04-25 01:17:00,
2013-04-24 21:22:00,71.2,66.6,30.09,NW,315,0.0,5.0,85,0.00,,,0.00,meteohub,2013-04-25 01:22:00,
2013-04-24 21:27:00,71.2,66.6,30.09,NW,315,2.0,5.0,85,0.00,,,0.00,meteohub,2013-04-25 01:27:00,
2013-04-24 21:32:00,71.1,66.0,30.08,NW,315,0.0,5.0,84,0.00,,,0.00,meteohub,2013-04-25 01:32:00,
2013-04-24 21:37:00,70.9,65.8,30.09,NW,315,0.0,3.0,84,0.00,,,0.00,meteohub,2013-04-25 01:37:00,
2013-04-24 21:42:00,70.5,65.5,30.08,NW,315,0.0,3.0,84,0.00,,,0.00,meteohub,2013-04-25 01:42:00,
2013-04-24 21:47:00,70.3,65.7,30.09,NW,315,0.0,1.0,85,0.00,,,0.00,meteohub,2013-04-25 01:47:00,
2013-04-24 21:52:00,70.2,65.8,30.09,NW,315,0.0,0.0,86,0.00,,,0.00,meteohub,2013-04-25 01:52:00,
2013-04-24 21:57:00,70.0,65.7,30.09,NW,315,0.0,0.0,86,0.00,,,0.00,meteohub,2013-04-25 01:57:00,
2013-04-24 22:02:00,70.0,66.0,30.09,NW,315,0.0,0.0,87,0.00,,,0.00,meteohub,2013-04-25 02:02:00,
2013-04-24 22:07:00,69.8,65.8,30.09,NW,315,0.0,1.0,87,0.00,,,0.00,meteohub,2013-04-25 02:07:00,
2013-04-24 22:12:00,69.8,65.8,30.09,NW,315,0.0,1.0,87,0.00,,,0.00,meteohub,2013-04-25 02:12:00,
2013-04-24 22:17:00,69.6,65.7,30.09,NW,315,1.0,1.0,87,0.00,,,0.00,meteohub,2013-04-25 02:17:00,
2013-04-24 22:22:00,69.6,65.7,30.10,NW,315,1.0,2.0,87,0.00,,,0.00,meteohub,2013-04-25 02:22:00,
2013-04-24 22:27:00,69.6,65.8,30.10,NW,315,1.0,2.0,88,0.00,,,0.00,meteohub,2013-04-25 02:27:00,
2013-04-24 22:32:00,69.6,65.7,30.10,NW,315,0.0,3.0,87,0.00,,,0.00,meteohub,2013-04-25 02:32:00,
2013-04-24 22:37:00,69.4,65.7,30.10,NW,315,1.0,3.0,88,0.00,,,0.00,meteohub,2013-04-25 02:37:00,
2013-04-24 22:42:00,69.4,65.7,30.10,NW,315,0.0,3.0,88,0.00,,,0.00,meteohub,2013-04-25 02:42:00,
2013-04-24 22:47:00,69.3,65.5,30.10,NW,315,0.0,2.0,88,0.00,,,0.00,meteohub,2013-04-25 02:47:00,
2013-04-24 22:52:00,69.3,65.5,30.10,NW,315,0.0,2.0,88,0.00,,,0.00,meteohub,2013-04-25 02:52:00,
2013-04-24 22:57:00,69.1,65.3,30.09,NW,315,0.0,2.0,88,0.00,,,0.00,meteohub,2013-04-25 02:57:00,
2013-04-24 23:02:00,68.9,65.5,30.10,NW,315,0.0,2.0,89,0.00,,,0.00,meteohub,2013-04-25 03:02:00,
2013-04-24 23:07:00,68.9,65.5,30.10,NW,315,0.0,2.0,89,0.00,,,0.00,meteohub,2013-04-25 03:07:00,
2013-04-24 23:12:00,68.9,65.5,30.09,NW,315,0.0,2.0,89,0.00,,,0.00,meteohub,2013-04-25 03:12:00,
2013-04-24 23:17:00,68.7,65.3,30.09,NW,315,0.0,1.0,89,0.00,,,0.00,meteohub,2013-04-25 03:17:00,
2013-04-24 23:22:00,68.7,65.3,30.09,NW,315,0.0,1.0,89,0.00,,,0.00,meteohub,2013-04-25 03:22:00,
2013-04-24 23:27:00,68.5,65.1,30.09,NW,315,0.0,1.0,89,0.00,,,0.00,meteohub,2013-04-25 03:27:00,
2013-04-24 23:32:00,68.4,64.9,30.09,NW,315,0.0,1.0,89,0.00,,,0.00,meteohub,2013-04-25 03:32:00,
2013-04-24 23:37:00,68.2,64.8,30.08,NW,315,0.0,0.0,89,0.00,,,0.00,meteohub,2013-04-25 03:37:00,
2013-04-24 23:42:00,68.2,65.1,30.08,NW,315,0.0,0.0,90,0.00,,,0.00,meteohub,2013-04-25 03:42:00,
2013-04-24 23:47:00,68.2,65.5,30.08,NW,315,0.0,0.0,91,0.00,,,0.00,meteohub,2013-04-25 03:47:00,
2013-04-24 23:52:00,68.2,65.5,30.08,NW,315,0.0,1.0,91,0.00,,,0.00,meteohub,2013-04-25 03:52:00,
2013-04-24 23:57:00,68.0,64.9,30.08,NW,315,0.0,1.0,90,0.00,,,0.00,meteohub,2013-04-25 03:57:00,